DW1038 Weather Reports


Display with metric or nautical units.
time (UTC)temp
F
wind
direction
speed
MPH
gust
MPH
rain 1hr
in
rain 24hr
in
rain mn
in
humidity
%
barometer
mb
20220122181543 34 155 0.0 0.0 0.00 0.00 0.00 75 1025.7
20220122180602 34 134 0.0 0.0 0.00 0.00 0.00 76 1026.0
20220122175546 33 140 0.0 0.0 0.00 0.00 0.00 77 1026.0
20220122174522 33 179 0.0 0.0 0.00 0.00 0.00 78 1026.0
20220122173512 32 103 0.0 0.0 0.00 0.00 0.00 79 1026.1
20220122172448 32 142 0.0 0.0 0.00 0.00 0.00 79 1026.2
20220122171507 31 123 0.0 0.0 0.00 0.00 0.00 80 1026.2
20220122170458 31 217 0.0 0.0 0.00 0.00 0.00 80 1026.2
20220122165433 31 99 0.0 0.0 0.00 0.00 0.00 81 1026.1
20220122164408 31 198 0.0 0.0 0.00 0.00 0.00 82 1026.3
20220122163350 30 161 0.0 0.0 0.00 0.00 0.00 82 1026.3
20220122162408 30 210 0.0 0.0 0.00 0.00 0.00 83 1026.2
20220122161345 29 223 0.0 4.0 0.00 0.01 0.00 84 1026.3
20220122160407 29 214 0.0 0.0 0.00 0.01 0.00 85 1026.3
20220122155417 29 199 0.0 0.0 0.00 0.01 0.00 85 1026.3
20220122154432 29 211 0.0 0.0 0.00 0.01 0.00 87 1026.3
20220122153420 28 229 0.0 2.0 0.00 0.01 0.00 87 1026.3
20220122152411 28 216 0.0 0.0 0.00 0.01 0.00 87 1026.3
20220122151342 28 246 0.0 1.0 0.00 0.01 0.00 88 1026.2
20220122150312 28 209 0.0 5.0 0.00 0.01 0.00 88 1026.2
20220122145314 28 231 0.0 0.0 0.00 0.01 0.00 87 1026.1
20220122144304 28 217 1.0 0.0 0.00 0.01 0.00 87 1026.1
20220122143300 28 211 0.0 0.0 0.00 0.01 0.00 85 1026.1
20220122142323 28 205 0.0 0.0 0.00 0.01 0.00 84 1026.0
20220122141347 29 205 0.0 4.0 0.00 0.01 0.00 84 1026.1
20220122140345 29 211 0.0 0.0 0.00 0.01 0.00 84 1026.1
20220122135336 29 213 0.0 0.0 0.00 0.01 0.00 84 1026.0
20220122134332 29 223 0.0 0.0 0.00 0.01 0.00 84 1026.0
20220122133350 30 188 0.0 0.0 0.00 0.01 0.00 85 1026.0
20220122132408 30 190 0.0 3.0 0.00 0.01 0.00 86 1026.0
20220122131334 30 322 0.0 0.0 0.00 0.01 0.00 87 1025.8
20220122130341 30 322 0.0 0.0 0.00 0.01 0.00 87 1025.6
20220122125337 30 315 0.0 0.0 0.00 0.01 0.00 87 1025.6
20220122124337 30 315 0.0 0.0 0.00 0.01 0.00 86 1025.6
20220122123402 30 317 0.0 0.0 0.00 0.01 0.00 86 1025.5
20220122122353 30 349 0.0 0.0 0.00 0.01 0.00 86 1025.5
20220122121351 31 347 0.0 0.0 0.00 0.01 0.00 85 1025.3
20220122120348 31 346 0.0 0.0 0.00 0.01 0.00 85 1025.4
20220122115342 31 333 0.0 0.0 0.00 0.01 0.00 84 1025.3
20220122114324 31 332 0.0 0.0 0.00 0.01 0.00 84 1025.3
20220122113309 31 327 0.0 0.0 0.00 0.01 0.00 84 1025.2
20220122112305 31 301 0.0 0.0 0.00 0.01 0.00 83 1025.1
20220122111253 31 315 0.0 0.0 0.00 0.01 0.00 82 1025.2
20220122110228 31 9 0.0 0.0 0.00 0.01 0.00 82 1025.2
20220122105249 31 9 0.0 0.0 0.00 0.01 0.00 82 1025.1
20220122104246 31 9 0.0 0.0 0.00 0.01 0.00 83 1025.0
20220122103225 31 13 0.0 0.0 0.00 0.01 0.00 83 1024.9
20220122102228 31 42 0.0 3.0 0.00 0.01 0.00 84 1024.9
20220122101239 31 351 0.0 0.0 0.00 0.01 0.00 84 1024.9
20220122100208 31 323 0.0 0.0 0.00 0.01 0.00 84 1025.0
20220122095212 31 297 0.0 4.0 0.00 0.01 0.00 84 1025.1
20220122094233 31 46 0.0 2.0 0.00 0.01 0.00 84 1025.1
20220122093238 31 346 0.0 0.0 0.00 0.01 0.00 83 1025.1
20220122092246 31 5 0.0 1.0 0.00 0.01 0.00 83 1025.2
20220122091303 31 342 0.0 7.0 0.00 0.01 0.00 82 1025.1
20220122090327 31 5 0.0 0.0 0.00 0.01 0.00 83 1025.0
20220122085345 31 36 0.0 0.0 0.00 0.01 0.00 84 1024.8
20220122084400 31 355 2.0 11.0 0.00 0.01 0.00 83 1024.9
20220122083419 31 44 1.0 7.0 0.00 0.01 0.00 83 1024.8
20220122082407 31 332 0.0 0.0 0.00 0.01 0.00 82 1024.8
20220122081344 31 0 0.0 3.0 0.00 0.01 0.00 82 1024.8
20220122080356 32 5 1.0 8.0 0.00 0.01 0.00 82 1024.9
20220122075420 32 5 1.0 7.0 0.00 0.01 0.00 80 1024.8
20220122074443 32 53 1.0 6.0 0.00 0.01 0.00 80 1024.7
20220122073457 32 72 1.0 4.0 0.00 0.01 0.00 80 1024.7
20220122072433 32 5 1.0 11.0 0.00 0.01 0.00 79 1024.9
20220122071448 32 341 2.0 11.0 0.00 0.01 0.00 79 1024.7
20220122070501 32 0 0.0 5.0 0.00 0.01 0.00 79 1024.8
20220122065431 32 5 0.0 3.0 0.00 0.01 0.01 79 1024.7
20220122064405 32 355 0.0 0.0 0.00 0.01 0.01 80 1024.7
20220122063337 32 0 0.0 4.0 0.00 0.01 0.01 80 1024.7
20220122062356 32 344 0.0 3.0 0.00 0.01 0.01 79 1024.7
20220122061347 32 5 0.0 0.0 0.00 0.01 0.01 78 1024.7
20220122060350 33 0 0.0 3.0 0.00 0.01 0.01 77 1024.5
20220122055329 33 0 1.0 7.0 0.00 0.01 0.01 77 1024.4
20220122054305 33 306 0.0 7.0 0.00 0.01 0.01 76 1024.4
20220122053309 33 11 1.0 13.0 0.00 0.01 0.01 75 1024.3
20220122052305 33 325 3.0 13.0 0.00 0.01 0.01 75 1024.3
20220122051244 33 313 2.0 10.0 0.00 0.01 0.01 75 1024.1
20220122050247 33 19 2.0 10.0 0.00 0.01 0.01 75 1023.9
20220122045236 33 292 2.0 9.0 0.00 0.01 0.01 77 1023.9
20220122044250 33 316 0.0 0.0 0.00 0.01 0.01 78 1023.8
20220122043232 33 9 0.0 7.0 0.00 0.01 0.01 79 1023.7
20220122042220 33 44 0.0 5.0 0.00 0.01 0.01 79 1023.7
20220122041209 33 78 0.0 5.0 0.00 0.01 0.01 78 1023.6
20220122040222 34 84 0.0 4.0 0.00 0.01 0.01 76 1023.6
20220122035243 34 9 0.0 3.0 0.00 0.01 0.01 75 1023.4
20220122034209 33 5 0.0 4.0 0.00 0.01 0.01 76 1023.2
20220122033210 33 330 0.0 0.0 0.00 0.01 0.01 77 1023.2
20220122032218 33 5 1.0 8.0 0.00 0.01 0.01 78 1023.2
20220122031227 33 308 2.0 1.0 0.00 0.01 0.01 79 1023.1
20220122030208 34 317 2.0 9.0 0.00 0.01 0.01 78 1023.1
20220122025218 34 344 1.0 12.0 0.00 0.01 0.01 75 1023.0
20220122024240 34 302 1.0 12.0 0.00 0.01 0.01 74 1022.8
20220122023219 34 338 1.0 8.0 0.00 0.01 0.01 73 1022.8
20220122022151 34 44 0.0 3.0 0.00 0.01 0.01 71 1022.7
20220122021213 34 334 1.0 0.0 0.00 0.01 0.01 71 1022.6
20220122020231 34 290 0.0 5.0 0.00 0.01 0.01 72 1022.4
20220122015240 34 0 0.0 7.0 0.00 0.01 0.01 73 1022.2
20220122014230 34 336 2.0 18.0 0.00 0.01 0.01 73 1022.0
20220122013213 34 346 1.0 18.0 0.00 0.01 0.01 73 1021.7
20220122012216 34 56 1.0 14.0 0.00 0.01 0.01 72 1021.7
20220122011205 34 20 1.0 8.0 0.00 0.01 0.01 72 1021.3
20220122010217 35 348 0.0 12.0 0.00 0.01 0.01 70 1021.1
20220122005230 35 5 3.0 12.0 0.00 0.01 0.01 69 1021.1
20220122004156 35 63 3.0 16.0 0.00 0.01 0.01 67 1020.8
20220122003209 35 36 3.0 16.0 0.00 0.01 0.01 64 1020.6
20220122002227 35 74 3.0 13.0 0.00 0.01 0.01 64 1020.6
20220122001227 35 140 0.0 17.0 0.00 0.01 0.01 63 1020.3
20220122000220 35 25 3.0 24.0 0.00 0.01 0.01 62 1020.2
20220121235226 36 70 0.0 24.0 0.00 0.01 0.01 61 1020.0
20220121234226 36 55 7.0 22.0 0.00 0.01 0.01 58 1019.9
20220121233218 37 0 3.0 18.0 0.00 0.01 0.01 50 1019.6
20220121232225 38 40 3.0 15.0 0.00 0.01 0.01 47 1019.8
20220121231200 39 301 3.0 12.0 0.00 0.01 0.01 45 1019.5
20220121230127 40 355 3.0 14.0 0.00 0.01 0.01 45 1019.4
20220121225104 42 345 3.0 14.0 0.00 0.01 0.01 42 1019.2
20220121224113 43 21 3.0 18.0 0.00 0.01 0.01 38 1019.0
20220121223059 44 16 4.0 18.0 0.00 0.01 0.01 38 1018.9
20220121222105 44 39 2.0 12.0 0.00 0.01 0.01 39 1018.8
20220121221037 43 292 4.0 20.0 0.00 0.01 0.01 41 1018.6
20220121220026 44 338 5.0 15.0 0.00 0.01 0.01 41 1018.3
20220121215028 45 317 3.0 14.0 0.00 0.01 0.01 39 1018.1
20220121213959 46 323 3.0 14.0 0.00 0.01 0.01 39 1018.1
20220121212940 47 25 3.0 14.0 0.00 0.01 0.01 38 1018.0
20220121212002 48 321 2.0 12.0 0.00 0.01 0.01 39 1017.8
20220121211007 49 355 1.0 9.0 0.00 0.01 0.01 35 1017.7
20220121205949 50 5 1.0 10.0 0.00 0.01 0.01 33 1017.5
20220121204920 50 336 3.0 12.0 0.00 0.02 0.01 33 1017.4
20220121203931 51 325 2.0 16.0 0.00 0.02 0.01 32 1017.4
20220121202945 51 5 2.0 16.0 0.00 0.02 0.01 32 1017.4
20220121201956 52 60 1.0 10.0 0.00 0.02 0.01 30 1017.2
20220121201001 51 73 2.0 10.0 0.00 0.03 0.01 31 1017.3
20220121200008 51 40 0.0 6.0 0.00 0.03 0.01 31 1017.2
20220121195017 51 70 0.0 0.0 0.00 0.03 0.01 31 1017.3
20220121194020 51 56 0.0 8.0 0.00 0.03 0.01 31 1017.3
20220121192945 51 86 0.0 7.0 0.00 0.03 0.01 32 1017.3
20220121192001 52 25 0.0 4.0 0.00 0.03 0.01 32 1017.4
20220121190933 52 40 0.0 0.0 0.00 0.03 0.01 30 1017.6
20220121185949 52 65 0.0 2.0 0.00 0.03 0.01 31 1017.6
20220121185009 51 55 1.0 9.0 0.00 0.03 0.01 33 1017.6
20220121184022 51 40 0.0 5.0 0.00 0.03 0.01 33 1017.7
20220121183038 49 138 0.0 0.0 0.00 0.03 0.01 37 1017.9